Погода Сангары

Погода Сангары : погода сейчас, прогноз погоды и архив. Всё, что Вы хотите узнать о погоде Сангары!

Хотите узнать прогноз погоды Сангары? Тогда Вам сюда: Погода Сангары

Поиск расширенной информации на нашем сайте:

Другие новости

Новости СМИ2

Главная страница сайта

Новости сайта

03.07.2017

Напоминаем, что на нашем специализированном сайте Метеоцентр.Азия вы можете получить высокодетализированные автоматические прогнозы погоды по пунктам России, СНГ и мира в авиационном формате (включающие направление и скорость ветра, видимость, явления погоды, количество и форму облачности, нижнюю и верхнюю границу облачности).

Рекомендуем: лесные жители белфакс

Погода Сангары - сегодня

Время (UTC), дата Ветер
(°,м/с) 
Видим.   Явления Облачность Т
(°С)
Тd
(°С)
f(%) Тe
(°С)
Pmin
(гПа)
dP
(гПа)
Po
(мм)
O2
(г/м3)
Тmin Tmax R s Состояние
почвы
06 17.05.18 320 (СЗ) 20000 м    9/4 1000 м средняя 
[Sc diur, vesp|Ac cuf]
+5.8 -4 49 +3  1008.3  0.1  747  295           
09 17.05.18 310 (СЗ) 20000 м    9/5 1000 м средняя, верхняя 
[Sc diur, vesp|Ac cuf|Ci fib]
+6.4 -4.6 45 +5  1008.6  0.3  748  295           
12 17.05.18 310 (СЗ) 20000 м    1/0 средняя 
[Ac trans]
+4.8 -4.7 50 +4  1009.1  0.4  748  297    +7.2       
15 17.05.18 310 (СЗ) 20000 м    ясно 
+0.1 -3.9 74 -1  1009.2  748  302           
18 17.05.18 060 (СВ) 20000 м    ясно 
-4.1 -4.6 96 -4  1009.4  748  306           
21 17.05.18 тихо ()   20000 м    ясно 
+0.8 -2.2 80 +1  1010.1  0.8  749  301           
00 18.05.18 190 (Ю) 20000 м    ясно 
+4.4 -2.3 62 +4  1009.9  749  297  -4.1        влажная 
03 18.05.18 200 (Ю) 20000 м    3/0 верхняя 
[Ci fib]
+8.9 -5.8 35 +8  1008.5  -1.2  748  292           
06 18.05.18 170 (Ю) 20000 м    3/0 верхняя 
[Ci fib]
+10.9 -7.6 26 +11  1007.5  -0.9  747  290           
09 18.05.18 140 (ЮВ) 20000 м    1/0 верхняя 
[Ci fib]
+12 -9.4 21 +12  1006.9  -0.5  747  289           
12 18.05.18 100 (В) 20000 м    9/0 верхняя 
[Ci fib]
+10.5 -10.2 22 +11  1007.1  0.1  747  291  -12.7         
15 18.05.18 090 (В) 20000 м    10/0 верхняя 
[Ci sp]
+7.2 -8.6 31 +6  1006.8  -0.5  746  294           
18 18.05.18 090 (В) 20000 м    10/0 средняя, верхняя 
[Ac trans|Ci sp]
+6.7 -8.6 33 +5  1006.4  -0.4  746  294           
09 19.05.18 тихо ()   20000 м    4/4 600 м кучево-дожд. 
[Cb calv]
+7.6 +5.8 88 +8  1005.8  0.4  746  291           
12 19.05.18 210 (ЮЗ) 20000 м    6/0 средняя, верхняя 
[Ac trans|Ci fib]
+6.7 +5.3 91 +8  1007.1  1.2  747  293    +8.9     
15 19.05.18 030 (СВ) 20000 м    10/0 средняя, верхняя 
[Ac trans|Ci fib]
+4.5 +3.8 95 +4  1007.2  747  295           
03 20.05.18 290 (З) 20000 м  {ливн. осадки}  8/3 600 м средняя 
[Cu hum|Ac trans]
+8.8 +4 72 +8  1009.3  0.6  748  291           
06 20.05.18 280 (З) 20000 м  {ливн. осадки}  8/4 600 м верхняя 
[Cu hum|Ci ing]
+5.9 +1.1 71 +5  1010.1  0.8  749  295           
09 20.05.18 270 (З) 20000 м  {ливн. осадки}  6/4 600 м кучево-дожд., средняя 
[Cb calv|Ac trans]
+6.4 +2.3 75 +6  1011.8  1.7  750  295           
15 20.05.18 270 (З) 20000 м    4/4 300 м 
[St]
+1.6 +0.5 92 1015.9  1.5  753  302           
18 20.05.18 270 (З) 20000 м    10/10 100 м 
[St]
+1.8 +0.7 92 -1  1017.6  1.7  754  302           
21 20.05.18 270 (З) 20000 м    8/8 100 м 
[St]
+1.4 +0.3 92 -1  1018.7  1.1  755  303           
00 21.05.18 290 (З) 20000 м    9/0 средняя 
[Ac und]
+2.7 +0.3 84 1018.9  0.3  755  300  +0.9        влажная 
03 21.05.18 290 (З) 20000 м    9/4 1000 м средняя 
[Sc|Ac und]
+3.6 -1.4 70 +1  1018.8  -0.1  755  300           
06 21.05.18 280 (З) 20000 м    ясно 
+6.2 -1.4 58 +4  1017  -1.7  754  297           
Время (UTC), дата Ветер
(°,м/с) 
Видим.   Явления Облачность Т
(°С)
Тd
(°С)
f(%) Тe
(°С)
Pmin
(гПа)
dP
(гПа)
Po
(мм)
O2
(г/м3)
Тmin Tmax R s Состояние
почвы

Для получения пояснительной информации подведите курсор к названию столбца.

ПОГОДА Сангары - архив

Всё, что Вы хотите узнать о погоде Сангары - удобно и подробно!

Выберите нужную дату (начиная с 1 января 2015* года) и нажмите кнопку "Найти".
Будут отображены архивные сводки погоды по пункту Сангары, начиная с указанной даты.


Отображать данные в формате CSV (для использования в таблицах Excel)


Внимание! Наш архив погоды предназначен исключительно для личного некоммерческого использования в познавательных целях. Если Вам необходимы официальные справки о состоянии погоды (для производственных, юридических, коммерческих и т.п. целей), обращайтесь в органы Росгидромета.

*Примечание: данная дата относится к архиву по метеостанциям СССР (Россия, СНГ, Балтия).
Архив по метеостанциям Зарубежной Европы и Азии (кроме Китая) хранится 10 дней, по другим регионам земного шара (Китай, Африка, Америка, Австралия, Океания) - 1 день.

Сангары - район местоположения метеостанции


Название, широта, долгота, высота метеостанции:
Сангары 64°ш. 127.5°д. 96 м над ур. моря [Российская Федерация]

Дополнительная информация

В oтличие oт бoльшинства пoгoдных сайтoв мы публикуем пoдрoбную метеoинфoрмацию в детальнoм прoфессиoнальнoм фoрмате.

Характеристики температуры и влажнoсти вoздуха измеряются на высoте 2 м в тени вдали oт зданий и деревьев.
Скoрoсть ветра измеряется на высoте 10 м (на урoвне рoста челoвека скoрoсть ветра ниже в 1.5-2 раза). Если метеoстанция нахoдится в гoрoде или в лесу, тo скoрoсть ветра занижена на 2-4 м/с пo сравнению с oткрытым местoм. Скoрoсть ветра над акватoриями крупных рек и oзёр, а также на вершинах хoлмoв на 2-5 м/с выше, чем в oбычных услoвиях.
Атмoсфернoе давление в разных тoчках местнoсти мoжет значительнo oтличаться oт давления на метеoстанции, в зависимoсти oт услoвий рельефа (при пoдъёме на 10 м давление пoнижается примернo на 1 мм рт.ст.).